When you browse on this site, cookies collect data to enhance your experience and personalize the content and advertising you see.
Visit our Privacy Policy to learn more. By continuing to use the site, you agree to this use of cookies and data.
  • In Portugal
  • List of Countries
  • For 7 days
  • Water Temperature
  • Satellite Maps
  • Weather Map
  • Weather Widgets
  • user-avatar
    Login

    Hourly Weather Fakuoka

    Today, 11 December, Tuesday

    Time Temperature Precipitation Wind Pressure Humidity
    00:00 +7°C° 0 mm 3 mps 749 mmHg 64%
    01:00 +7°C° 0 mm 3 mps 749 mmHg 65%
    02:00 +7°C° 0 mm 3 mps 749 mmHg 65%
    03:00 +6°C° 0 mm 4 mps 748 mmHg 66%
    04:00 +6°C° 0.2 mm 4 mps 748 mmHg 70%
    05:00 +6°C° 0.2 mm 4 mps 748 mmHg 73%
    06:00 +7°C° 0.2 mm 3 mps 748 mmHg 77%
    07:00 +7°C° 0.7 mm 3 mps 747 mmHg 78%
    08:00 +7°C° 0.7 mm 3 mps 747 mmHg 80%
    09:00 +8°C° 0.7 mm 3 mps 747 mmHg 82%
    10:00 +8°C° 2.1 mm 3 mps 746 mmHg 84%
    11:00 +8°C° 2.1 mm 3 mps 746 mmHg 85%
    12:00 +8°C° 2.1 mm 3 mps 745 mmHg 87%
    13:00 +8°C° 3.6 mm 3 mps 745 mmHg 88%
    14:00 +8°C° 3.6 mm 3 mps 745 mmHg 89%
    15:00 +8°C° 3.6 mm 3 mps 744 mmHg 91%
    16:00 +8°C° 1.7 mm 2 mps 744 mmHg 90%
    17:00 +8°C° 1.7 mm 2 mps 744 mmHg 90%
    18:00 +8°C° 1.7 mm 2 mps 744 mmHg 90%
    19:00 +9°C° 0.2 mm 2 mps 744 mmHg 89%
    20:00 +9°C° 0.2 mm 2 mps 744 mmHg 89%
    21:00 +9°C° 0.2 mm 2 mps 744 mmHg 89%
    22:00 +9°C° 0 mm 2 mps 744 mmHg 89%
    23:00 +9°C° 0 mm 2 mps 744 mmHg 89%

    Tomorrow, 12 December, Wednesday

    Time Temperature Precipitation Wind Pressure Humidity
    00:00 +9°C° 0 mm 3 mps 744 mmHg 88%
    01:00 +10°C° 0.1 mm 3 mps 744 mmHg 88%
    02:00 +10°C° 0.1 mm 4 mps 744 mmHg 87%
    03:00 +10°C° 0.1 mm 4 mps 744 mmHg 86%
    04:00 +9°C° 0.2 mm 5 mps 744 mmHg 83%
    05:00 +9°C° 0.2 mm 6 mps 744 mmHg 80%
    06:00 +9°C° 0.2 mm 6 mps 744 mmHg 77%
    07:00 +8°C° 0 mm 6 mps 745 mmHg 74%
    08:00 +8°C° 0 mm 6 mps 745 mmHg 70%
    09:00 +8°C° 0 mm 6 mps 745 mmHg 66%
    10:00 +8°C° 0 mm 6 mps 746 mmHg 62%
    11:00 +8°C° 0 mm 6 mps 746 mmHg 58%
    12:00 +8°C° 0 mm 6 mps 746 mmHg 53%
    13:00 +8°C° 0 mm 6 mps 746 mmHg 51%
    14:00 +8°C° 0 mm 6 mps 746 mmHg 49%
    15:00 +8°C° 0 mm 6 mps 746 mmHg 47%
    16:00 +7°C° 0 mm 5 mps 746 mmHg 48%
    17:00 +6°C° 0 mm 5 mps 747 mmHg 49%
    18:00 +6°C° 0 mm 4 mps 747 mmHg 51%
    19:00 +5°C° 0 mm 3 mps 747 mmHg 51%
    20:00 +5°C° 0 mm 3 mps 747 mmHg 52%
    21:00 +5°C° 0 mm 3 mps 748 mmHg 53%
    22:00 +6°C° 0 mm 2 mps 748 mmHg 54%
    23:00 +6°C° 0 mm 2 mps 748 mmHg 54%

    Day after tomorrow, 13 December, Thursday

    Time Temperature Precipitation Wind Pressure Humidity
    00:00 +5°C° 0 mm 2 mps 748 mmHg 55%
    01:00 +5°C° 0 mm 2 mps 748 mmHg 56%
    02:00 +5°C° 0 mm 2 mps 748 mmHg 58%
    03:00 +5°C° 0 mm 2 mps 748 mmHg 59%
    04:00 +5°C° 0 mm 2 mps 748 mmHg 60%
    05:00 +4°C° 0 mm 3 mps 748 mmHg 61%
    06:00 +4°C° 0 mm 3 mps 748 mmHg 63%
    07:00 +5°C° 0 mm 3 mps 748 mmHg 61%
    08:00 +5°C° 0 mm 3 mps 749 mmHg 59%
    09:00 +6°C° 0 mm 4 mps 749 mmHg 57%
    10:00 +6°C° 0 mm 4 mps 749 mmHg 55%
    11:00 +6°C° 0 mm 4 mps 749 mmHg 53%
    12:00 +7°C° 0 mm 4 mps 749 mmHg 51%
    13:00 +7°C° 0 mm 4 mps 749 mmHg 52%
    14:00 +7°C° 0 mm 4 mps 749 mmHg 52%
    15:00 +7°C° 0 mm 4 mps 748 mmHg 52%
    16:00 +7°C° 0 mm 4 mps 749 mmHg 55%
    17:00 +6°C° 0 mm 4 mps 749 mmHg 58%
    18:00 +6°C° 0 mm 4 mps 749 mmHg 61%
    19:00 +6°C° 0 mm 4 mps 749 mmHg 62%
    20:00 +6°C° 0 mm 4 mps 750 mmHg 63%
    21:00 +6°C° 0 mm 4 mps 750 mmHg 63%
    22:00 +6°C° 0 mm 4 mps 750 mmHg 64%
    23:00 +7°C° 0 mm 3 mps 750 mmHg 64%

    14 December, Friday

    Time Temperature Precipitation Wind Pressure Humidity
    00:00 +7°C° 0 mm 3 mps 750 mmHg 65%
    01:00 +7°C° 0 mm 3 mps 750 mmHg 66%
    02:00 +6°C° 0 mm 4 mps 750 mmHg 68%
    03:00 +6°C° 0 mm 4 mps 750 mmHg 69%
    04:00 +5°C° 0 mm 4 mps 750 mmHg 67%
    05:00 +5°C° 0 mm 4 mps 750 mmHg 65%
    06:00 +5°C° 0 mm 4 mps 750 mmHg 63%
    07:00 +5°C° 0 mm 3 mps 750 mmHg 60%
    08:00 +5°C° 0 mm 3 mps 751 mmHg 56%
    09:00 +5°C° 0 mm 3 mps 751 mmHg 52%
    10:00 +7°C° 0 mm 3 mps 751 mmHg 50%
    11:00 +8°C° 0 mm 3 mps 751 mmHg 48%
    12:00 +9°C° 0 mm 2 mps 751 mmHg 46%
    13:00 +9°C° 0 mm 3 mps 750 mmHg 48%
    14:00 +9°C° 0 mm 3 mps 750 mmHg 50%
    15:00 +9°C° 0 mm 3 mps 750 mmHg 52%
    16:00 +8°C° 0 mm 3 mps 750 mmHg 57%
    17:00 +8°C° 0 mm 3 mps 750 mmHg 61%
    18:00 +7°C° 0 mm 3 mps 750 mmHg 66%
    19:00 +7°C° 0 mm 3 mps 751 mmHg 67%
    20:00 +7°C° 0 mm 2 mps 751 mmHg 69%
    21:00 +7°C° 0 mm 2 mps 751 mmHg 70%
    22:00 +7°C° 0 mm 2 mps 751 mmHg 71%
    23:00 +7°C° 0 mm 2 mps 751 mmHg 71%

    15 December, Saturday

    Time Temperature Precipitation Wind Pressure Humidity
    00:00 +8°C° 0 mm 1 mps 751 mmHg 72%
    01:00 +7°C° 0 mm 1 mps 750 mmHg 72%
    02:00 +7°C° 0 mm 1 mps 750 mmHg 72%
    03:00 +7°C° 0 mm 1 mps 750 mmHg 72%
    04:00 +7°C° 0 mm 1 mps 750 mmHg 73%
    05:00 +7°C° 0 mm 1 mps 750 mmHg 73%
    06:00 +6°C° 0 mm 1 mps 750 mmHg 73%
    07:00 +7°C° 0 mm 1 mps 750 mmHg 70%
    08:00 +8°C° 0 mm 1 mps 750 mmHg 67%
    09:00 +8°C° 0 mm 1 mps 750 mmHg 65%
    10:00 +10°C° 0 mm 1 mps 750 mmHg 59%
    11:00 +11°C° 0 mm 1 mps 750 mmHg 54%
    12:00 +12°C° 0 mm 1 mps 750 mmHg 48%
    13:00 +12°C° 0 mm 1 mps 749 mmHg 47%
    14:00 +12°C° 0 mm 1 mps 749 mmHg 46%
    15:00 +13°C° 0 mm 1 mps 748 mmHg 44%
    16:00 +12°C° 0 mm 1 mps 748 mmHg 48%
    17:00 +11°C° 0 mm 1 mps 748 mmHg 51%
    18:00 +10°C° 0 mm 1 mps 749 mmHg 55%
    19:00 +10°C° 0 mm 1 mps 749 mmHg 58%
    20:00 +9°C° 0 mm 1 mps 749 mmHg 61%
    21:00 +9°C° 0 mm 1 mps 749 mmHg 64%
    22:00 +9°C° 0 mm 1 mps 748 mmHg 66%
    23:00 +8°C° 0 mm 1 mps 748 mmHg 67%

    16 December, Sunday

    Time Temperature Precipitation Wind Pressure Humidity
    00:00 +8°C° 0 mm 1 mps 748 mmHg 69%
    01:00 +8°C° 0 mm 1 mps 747 mmHg 69%
    02:00 +8°C° 0 mm 1 mps 747 mmHg 69%
    03:00 +8°C° 0 mm 1 mps 747 mmHg 69%
    04:00 +8°C° 0 mm 1 mps 747 mmHg 69%
    05:00 +8°C° 0 mm 1 mps 746 mmHg 70%
    06:00 +8°C° 0 mm 1 mps 746 mmHg 70%
    07:00 +8°C° 0 mm 1 mps 746 mmHg 69%
    08:00 +8°C° 0 mm 2 mps 746 mmHg 67%
    09:00 +9°C° 0 mm 2 mps 747 mmHg 65%
    10:00 +9°C° 0 mm 2 mps 746 mmHg 63%
    11:00 +10°C° 0 mm 2 mps 746 mmHg 61%
    12:00 +11°C° 0 mm 3 mps 746 mmHg 59%
    13:00 +11°C° 0.1 mm 3 mps 745 mmHg 60%
    14:00 +11°C° 0.1 mm 3 mps 745 mmHg 61%
    15:00 +11°C° 0.1 mm 3 mps 744 mmHg 62%
    16:00 +10°C° 0 mm 3 mps 744 mmHg 63%
    17:00 +10°C° 0 mm 2 mps 745 mmHg 64%
    18:00 +9°C° 0 mm 2 mps 745 mmHg 65%
    19:00 +9°C° 0 mm 2 mps 745 mmHg 66%
    20:00 +9°C° 0 mm 2 mps 745 mmHg 67%
    21:00 +8°C° 0 mm 2 mps 745 mmHg 69%
    22:00 +8°C° 0 mm 2 mps 744 mmHg 70%
    23:00 +8°C° 0 mm 2 mps 744 mmHg 70%
    Show more